{"data":{"norad_id":59035,"intl_designator":"2024-038N","name":"STARLINK-31207","alt_names":[],"object_type":"PAYLOAD","status":"ACTIVE","operator":null,"country":"US","launch_date":"2024-02-25","launch_site_code":"AFETR","launch_vehicle":null,"mission":null,"orbit_class":"UNKNOWN","rcs_meters":null,"size_class":null,"mass_kg":null,"dimensions":null,"purposes":["comms"],"wikipedia_slug":null,"has_3d_model":false,"image_url":null,"decayed_at":null,"tle_current":{"epoch":"2026-05-25T03:50:33.066816Z","epoch_age_seconds":64504,"freshness":"FRESH","line1":"1 59035U 24038N   26145.16010494  .00001743  00000+0  72849-4 0  9990","line2":"2 59035  42.9997 311.6801 0000769 281.4967  78.5798 15.27580112126558","mean_motion":15.27580112,"eccentricity":7.69e-5,"inclination_deg":42.9997,"raan_deg":311.6801,"arg_perigee_deg":281.4967,"mean_anomaly_deg":78.5798,"bstar":7.2849e-5,"rev_number":12655,"period_min":94.266741802148,"perigee_km":482.52113548638,"apogee_km":483.57638585638,"semimajor_km":6861.1857606714,"source":"CELESTRAK","updated_at":"2026-05-25T13:38:18.824616Z"}}}